Regional Weather Roundup
Issued by NWS

Home | Current Version | Previous Version | Text Only | Print | Product List | Glossary On
Versions: 1 2 3 4 5 6 7 8 9 10 11 12 13 14 15 16 17 18 19 20 21 22 23 24 25 26 27 28 29 30 31 32 33 34 35 36 37 38 39 40 41 42 43 44 45 46 47 48 49 50
000
ASUS42 KTBW 200510
RWRFL
FLORIDA REGIONAL WEATHER ROUNDUP
NATIONAL WEATHER SERVICE TAMPA BAY RUSKIN FL
100 AM EDT WED AUG 20 2014

NOTE: "FAIR" INDICATES FEW OR NO CLOUDS BELOW 12,000 FEET WITH NO
SIGNIFICANT WEATHER AND/OR OBSTRUCTIONS TO VISIBILITY.


FLZ001>010-012>015-112-114-115-200600-
PANHANDLE FLORIDA

CITY           SKY/WX    TMP DP  RH WIND       PRES   REMARKS
PENSACOLA      PTCLDY    71  68  90 W3        29.98F
PENSACOLA NAS  PTCLDY    73  68  84 CALM      29.98F
MILTON NAS     PTCLDY    69  67  93 W6        29.99F
CRESTVIEW      MOCLDY    73  71  93 CALM      29.99F
DUKE FIELD     MOCLDY    73  73  99 CALM      29.98S
VALPARAISO     PTCLDY    75  71  86 W6        29.98F
MARY ESTHER    PTCLDY    73  67  83 NW6       29.97F
TRI COUNTY     FAIR      73  73 100 CALM      29.99S
PANAMA CITY    FAIR      78  74  87 CALM      29.98F
TYNDALL AFB    CLEAR     83  76  80 W8        30.00F
APALACHICOLA   CLEAR     82  75  79 W5        30.00S

STATION/POSITION SKY/WX   TEMP    WIND        PRES    WAVE   SWELL
                          AIR SEA DIR/SP/G            HT/PER HT/PER
                          (F)     (DEG/KT/KT) (MB)    (FT/S) (FT/S)
30.1N   87.6W              82 85   30/  6/  8 1016.4F   2/ 3
29.2N   88.2W              85 87  200/  6/  6 1016.6F
28.8N   86.0W              85 87  250/  8/ 10 1016.4    1/ 4   2/ 4
PANAMA CITY BEAC           82 82  220/  4/  5 1015.0S
CAPE SAN BLAS    NOT AVBL
TOWER C                    84     260/ 14/ 14 1016.2F
28.5N   84.5W              85 87  250/ 10/ 12 1016.8R   1/ 5   2/ 5

$$
FLZ011-016>038-118-127-128-134-139-239-200600-
NORTH FLORIDA

CITY           SKY/WX    TMP DP  RH WIND       PRES   REMARKS
MARIANNA       MOCLDY    73  73 100 CALM      29.97F
TALLAHASSEE    PTCLDY    75  72  90 CALM      30.01F
PERRY          CLEAR     77  73  88 W6        30.02S
CROSS CITY       N/A     79  75  87 CALM      30.02R
GAINESVILLE    CLEAR     77  75  93 NW5       30.03R
MAYPORT NAS    PTCLDY    80  72  76 SW5       30.00R
JACKSONVILLE   CLEAR     74  72  93 SW3       29.99S
JAX NAS        CLEAR     83  72  69 W8        30.01R
JAX CRAIG      CLEAR     81  72  74 W5        30.00R
JAX CECIL      CLEAR     75  73  94 CALM      30.02R
FERNANDINA BEA FAIR      77  70  78 SW5       29.98F
ST AUGUSTINE   CLEAR     79  74  84 W7        30.02R

STATION/POSITION SKY/WX   TEMP    WIND        PRES    WAVE   SWELL
                          AIR SEA DIR/SP/G            HT/PER HT/PER
                          (F)     (DEG/KT/KT) (MB)    (FT/S) (FT/S)
SHELL POINT                81     260/  6/  9   N/A
KEATON BEACH               85     270/ 14/ 17 1016.4F
CEDAR KEY                  85     260/  9/ 11 1016.5R
FERNANDINA                 78 85  240/  5/  6 1015.1F
30.7N   81.3W                 81                N/A     1/ 8
MAYPORT                    81 85  250/  6/  7   N/A
31.4N   80.9W              82 85  260/ 17/ 21 1014.3R   3/ 4
ST AUGUSTINE               80     270/  6/  9 1016.8R

$$
FLZ040-043>046-052-053-057-058-063-144-200600-
INTERIOR CENTRAL FLORIDA

CITY           SKY/WX    TMP DP  RH WIND       PRES   REMARKS
OCALA          CLEAR     75  73  94 CALM      30.03R
LEESBURG       CLEAR     79  74  84 W3        30.03R
SANFORD        CLEAR     80  72  76 CALM      30.01R
ORLANDO EXEC   CLEAR     83  74  74 CALM      30.01S
ORLANDO INTL   PTCLDY    78  75  90 S6        30.02R
WINTER HAVEN   CLEAR     79  74  84 NW3       30.03S
LAKELAND       CLEAR     77  77 100 CALM      30.03R
BARTOW         FAIR      79  79 100 CALM      30.04R
OKEECHOBEE       N/A     79  75  89 MISG      30.03S

$$
FLZ041-047-054-059-064-141-147-200600-
EAST CENTRAL FLORIDA

CITY           SKY/WX    TMP DP  RH WIND       PRES   REMARKS
DAYTONA BEACH  PTCLDY    76  72  87 W6        30.01R
DELAND         CLEAR     77  72  83 CALM      30.03R
JFK SPACE CTR  CLEAR     83  83 100 SW6       30.01S HX  99
CAPE CANAVERAL PTCLDY    83  75  77 SW6       30.00S
PATRICK AFB    PTCLDY    84  76  76 SW8       30.01S
MELBOURNE      CLEAR     82  75  79 S7        30.01S
VERO BEACH     CLEAR     80  75  84 S7        30.02S
FT PIERCE      CLEAR     81  74  79 CALM      30.02S
STUART         CLEAR     81  75  83 SW5       30.03F

STATION/POSITION SKY/WX   TEMP    WIND        PRES    WAVE   SWELL
                          AIR SEA DIR/SP/G            HT/PER HT/PER
                          (F)     (DEG/KT/KT) (MB)    (FT/S) (FT/S)
28.5N   80.2W              84 83  190/ 12/ 14 1016.2F
28.9N   78.5W              84 86  180/ 14/ 16 1016.3F   2/ 8   2/ 8
TRIDENT PIER               84 84  200/  8/ 10 1015.9R
28.4N   80.5W                 81                N/A     2/ 3
27.6N   80.2W                 83                N/A     1/ 8

$$
FLZ050-056-061-142-242-148-248-149-249-151-251-155-255-
160-260-200600-
WEST CENTRAL FLORIDA

CITY           SKY/WX    TMP DP  RH WIND       PRES   REMARKS
CRYSTAL RIVER  FAIR      75  73  94 CALM      30.02R
INVERNESS      FAIR      75  70  83 CALM      30.03R
BROOKSVILLE    CLEAR     76  74  93 CALM      30.03S
ZEPHYRHILLS    FAIR      73  73 100 CALM      30.04R
CLEARWATER     CLEAR     79  75  87 CALM      30.02S
TAMPA INTL     CLEAR     83  73  72 W6        30.03R
TAMPA EXEC     CLEAR     77  73  88 CALM      30.03R
MACDILL AFB    CLEAR     81  76  85 NW3       30.02F
ST PETERSBURG  CLEAR     85  75  72 NW3       30.00F
SARASOTA       CLEAR     82  74  76 NW3       30.01S
VENICE           N/A    N/A N/A N/A MISG        N/A

STATION/POSITION SKY/WX   TEMP    WIND        PRES    WAVE   SWELL
                          AIR SEA DIR/SP/G            HT/PER HT/PER
                          (F)     (DEG/KT/KT) (MB)    (FT/S) (FT/S)
CEDAR KEY                  85     260/  9/ 11 1016.5R
28.5N   84.5W              85 87  250/ 10/ 12 1016.8R   1/ 5   2/ 5
27.3N   84.3W                 89                N/A     1/ 9
CLEARWATER BEACH           85 90  260/  5/  8 1016.3S
MIDDLE TAMPA BAY           85     290/  5/  6 1016.6F
VENICE                     86 90  300/  5/  6 1016.2F

$$
FLZ066-069-070-075>078-162-262-165-265-200600-
SOUTHWEST FLORIDA AND KEYS

CITY           SKY/WX    TMP DP  RH WIND       PRES   REMARKS
PUNTA GORDA    PTCLDY    83  76  79 NW3       30.03F
FT MYERS       PTCLDY    84  76  76 NW5       30.02S
SOUTHWEST INTL MOCLDY    79  76  90 SE3       30.03S
NAPLES         MOCLDY    82  82 100 E3        30.02S HX  96
MARCO ISLAND   CLEAR     81  77  89 CALM      30.02F
MARATHON       CLEAR     86  76  71 SE6       30.02F HX  96
KEY WEST NAS   CLEAR     84  74  71 SE6       30.02F
KEY WEST INTL  CLEAR     86  74  67 SE9       30.03S

STATION/POSITION SKY/WX   TEMP    WIND        PRES    WAVE   SWELL
                          AIR SEA DIR/SP/G            HT/PER HT/PER
                          (F)     (DEG/KT/KT) (MB)    (FT/S) (FT/S)
VENICE                     86 90  300/  5/  6 1016.2F
NAPLES                     83     120/  4/  5 1017.2S
DRY TORTUGAS               86     140/  8/  9 1016.3F
NW FL BAY                  88     210/  5/  7 1017.0S
SAND KEY                   85     130/  8/ 10 1016.8F
SOMBRERO KEY               85     130/  9/  9 1017.5F
LONG KEY                   86 91  160/  8/  9 1017.9S
MOLASSES REEF              85 88  130/  3/  3 1017.1F

$$
FLZ067-068-071>074-168-172>174-200600-
SOUTHEAST FLORIDA

CITY           SKY/WX    TMP DP  RH WIND       PRES   REMARKS
W PALM BEACH   PTCLDY    83  76  79 S6        30.02F
FT LAUDER-EXEC CLEAR     83  76  79 S5        30.03F
FT LAUDERDALE  PTCLDY    85  74  69 S5        30.03S
POMPANO BEACH    N/A     85  75  72 S6        30.03F
PEMBROKE PINES CLEAR     83  74  74 CALM      30.04F
OPA LOCKA      PTCLDY    82  75  79 SE3       30.04S
MIAMI          PTCLDY    83  75  77 S3        30.04S
WEST KENDALL   CLEAR     83  75  77 CALM      30.04S
HOMESTEAD      CLEAR     80  77  89 CALM      30.04S

STATION/POSITION SKY/WX   TEMP    WIND        PRES    WAVE   SWELL
                          AIR SEA DIR/SP/G            HT/PER HT/PER
                          (F)     (DEG/KT/KT) (MB)    (FT/S) (FT/S)
PORT EVERGLADES            85     160/  7/ 10 1016.8
VIRGINIA KEY               85 89  180/  4/  6   N/A
LAKE WORTH                 85 87  170/ 12/ 13 1016.4F
FOWEY ROCKS                85 88  160/  8/  9 1017.4F
SETTLEMENT POINT           83     140/  6/  7 1017.4F

$$




USA.gov is the U.S. government's official web portal to all federal, state and local government web resources and services.